Location: Bastogne Gables
(35.1554°N, 78.9900°W)
Time: 02:58:34
(UTC+00:00)

Cosmos 1745 Rocket - Pass Details

Date: 29 October 2020
Orbit: 953 x 997 km, 83.0° (Epoch: 26 November)

Event Time Altitude Azimuth Distance (km) Brightness Sun altitude
Rises 23:24:17 0° 359° (N) 3,697 7.0 -12.9°
Reaches altitude 10° 23:26:53 10° 4° (N) 2,751 6.2 -13.4°
Maximum altitude 23:33:03 54° 81° (E) 1,197 4.1 -14.7°
Drops below altitude 10° 23:39:13 10° 157° (SSE) 2,754 6.2 -15.9°
Sets 23:41:48 0° 162° (SSE) 3,701 6.9 -16.4°
